Fremont, NE

11:02 PM CDT on April 26, 2018 (GMT -0500)
Fremont Municipal

Weather History for KFET - May, 2013

Change the Weather History Date:

Wednesday, May 15, 2013

  Actual Average Record
Temperature  
Mean Temperature 72 °F -  
Max Temperature 84 °F 76 °F 91 °F (2001)
Min Temperature 61 °F 49 °F 31 °F (1959)
Cooling Degree Days 8    
Growing Degree Days 22 (Base 50)    
Moisture  
Dew Point 38 °F    
Average Humidity 31    
Maximum Humidity 52    
Minimum Humidity 13    
Precipitation  
Precipitation 0.03 in - - ()
Sea Level Pressure  
Sea Level Pressure 29.87 in    
Wind  
Wind Speed 6 mph (ENE)    
Max Wind Speed 17 mph    
Max Gust Speed 25 mph    
Visibility 10 miles    
Events      
Averages and records for this station are not official NWS values.
T = Trace of Precipitation, MM = Missing Value Source: NWS Daily Summary

Daily Weather History Graph

Daily Weather History Graph

Search for Another Location

Airport or City:

Astronomy

May. 15, 2013 Rise Set
Actual Time 6:06 AM CDT 8:38 PM CDT
Civil Twilight 5:35 AM CDT 9:10 PM CDT
Nautical Twilight 4:55 AM CDT 9:49 PM CDT
Astronomical Twilight 4:11 AM CDT 10:34 PM CDT
Moon 10:44 AM CDT (5/15) 12:25 AM CDT (5/15)
Length of Visible Light 15h 35m
Length of Day
14h 31m
Waxing Crescent, 27% of the Moon is Illuminated
May 15
Waxing Crescent
May 17
First Quarter
May 24
Full
May 31
Last Quarter
Jun 8
New

Hourly Weather History & Observations

Time (CDT) Temp. Dew Point Humidity Pressure Visibility Wind Dir Wind Speed Gust Speed Precip Events Conditions
12:15 AM 73.6 °F 35.1 °F 25% 29.80 in 10.0 mi Calm Calm - N/A   Clear
12:35 AM 69.6 °F 39.6 °F 33% 29.81 in 10.0 mi Calm Calm - N/A   Clear
12:55 AM 67.8 °F 41.5 °F 38% 29.81 in 10.0 mi Calm Calm - N/A   Clear
1:15 AM 66.6 °F 41.2 °F 40% 29.82 in 10.0 mi Calm Calm - N/A   Clear
1:35 AM 66.2 °F 42.6 °F 42% 29.82 in 10.0 mi Calm Calm - N/A   Clear
1:55 AM 63.9 °F 43.0 °F 47% 29.83 in 10.0 mi Calm Calm - N/A   Clear
2:15 AM 63.5 °F 42.6 °F 47% 29.83 in 10.0 mi Calm Calm - N/A   Clear
2:35 AM 62.2 °F 43.0 °F 49% 29.83 in 10.0 mi Calm Calm - N/A   Clear
2:55 AM 62.1 °F 44.2 °F 52% 29.83 in 10.0 mi Calm Calm - N/A   Clear
3:15 AM 65.1 °F 39.0 °F 38% 29.83 in 10.0 mi NE 3.5 mph - N/A   Clear
3:35 AM 66.4 °F 34.9 °F 31% 29.83 in 10.0 mi NNE 6.9 mph - N/A   Clear
3:55 AM 66.2 °F 34.2 °F 30% 29.84 in 10.0 mi NNE 6.9 mph - N/A   Clear
4:15 AM 65.8 °F 33.8 °F 30% 29.84 in 10.0 mi North 4.6 mph - N/A   Clear
4:35 AM 64.6 °F 34.3 °F 32% 29.85 in 10.0 mi North 6.9 mph - N/A   Clear
4:55 AM 62.8 °F 36.7 °F 38% 29.86 in 10.0 mi North 9.2 mph - N/A   Clear
5:15 AM 63.0 °F 37.0 °F 38% 29.87 in 10.0 mi NE 4.6 mph - N/A   Clear
5:35 AM 61.5 °F 38.3 °F 42% 29.88 in 10.0 mi NE 5.8 mph - N/A   Clear
5:55 AM 61.3 °F 39.0 °F 44% 29.89 in 10.0 mi ENE 6.9 mph - N/A   Clear
6:15 AM 61.3 °F 39.7 °F 45% 29.89 in 10.0 mi ENE 6.9 mph - N/A   Clear
6:35 AM 61.2 °F 40.5 °F 47% 29.89 in 10.0 mi ENE 5.8 mph - N/A   Clear
6:55 AM 62.1 °F 41.0 °F 46% 29.89 in 10.0 mi NE 8.1 mph - N/A   Clear
7:15 AM 62.2 °F 41.7 °F 47% 29.89 in 10.0 mi NE 8.1 mph - N/A   Clear
7:35 AM 63.5 °F 42.4 °F 46% 29.90 in 10.0 mi NNE 6.9 mph - N/A   Clear
7:55 AM 64.9 °F 42.1 °F 43% 29.92 in 10.0 mi NNE 6.9 mph - N/A   Clear
8:15 AM 65.7 °F 41.2 °F 41% 29.92 in 10.0 mi NNE 10.4 mph - N/A   Clear
8:35 AM 67.1 °F 39.2 °F 36% 29.93 in 10.0 mi NNE 11.5 mph 16.1 mph N/A   Clear
8:55 AM 68.2 °F 38.1 °F 33% 29.94 in 10.0 mi NE 9.2 mph 24.2 mph N/A   Clear
9:15 AM 68.9 °F 38.3 °F 33% 29.94 in 10.0 mi NE 16.1 mph 21.9 mph N/A   Clear
9:35 AM 70.2 °F 37.0 °F 30% 29.95 in 10.0 mi NE 17.3 mph 24.2 mph N/A   Clear
9:55 AM 71.1 °F 36.3 °F 28% 29.94 in 10.0 mi ENE 15.0 mph 24.2 mph N/A   Clear
10:15 AM 72.3 °F 35.1 °F 26% 29.93 in 10.0 mi ENE 17.3 mph 24.2 mph N/A   Clear
10:35 AM 73.6 °F 35.1 °F 25% 29.93 in 10.0 mi ENE 15.0 mph 24.2 mph N/A   Clear
10:55 AM 75.0 °F 32.7 °F 21% 29.93 in 10.0 mi NE 15.0 mph 20.7 mph N/A   Clear
11:15 AM 76.3 °F 32.7 °F 20% 29.92 in 10.0 mi ENE 15.0 mph 23.0 mph N/A   Clear
11:35 AM 77.0 °F 31.8 °F 19% 29.93 in 10.0 mi ENE 16.1 mph 23.0 mph N/A   Clear
11:55 AM 77.2 °F 29.7 °F 18% 29.93 in 10.0 mi NE 16.1 mph 23.0 mph N/A   Clear
12:15 PM 77.7 °F 30.0 °F 17% 29.92 in 10.0 mi NE 13.8 mph 24.2 mph N/A   Clear
12:35 PM 78.1 °F 30.4 °F 17% 29.91 in 10.0 mi ENE 16.1 mph 23.0 mph N/A   Clear
12:55 PM 79.3 °F 28.8 °F 16% 29.90 in 10.0 mi ENE 16.1 mph 21.9 mph N/A   Clear
1:15 PM 79.9 °F 29.3 °F 16% 29.89 in 10.0 mi East 16.1 mph 21.9 mph N/A   Clear
1:35 PM 81.0 °F 28.8 °F 15% 29.89 in 10.0 mi ENE 12.7 mph 24.2 mph N/A   Clear
1:55 PM 82.0 °F 28.6 °F 14% 29.88 in 10.0 mi East 15.0 mph 23.0 mph N/A   Clear
2:15 PM 82.2 °F 27.7 °F 14% 29.87 in 10.0 mi ENE 15.0 mph 21.9 mph N/A   Clear
2:35 PM 83.3 °F 29.1 °F 14% 29.86 in 10.0 mi East 17.3 mph 23.0 mph N/A   Clear
2:55 PM 83.7 °F 27.7 °F 13% 29.86 in 10.0 mi East 17.3 mph 25.3 mph N/A   Clear
3:15 PM 83.5 °F 28.4 °F 14% 29.86 in 10.0 mi East 15.0 mph 21.9 mph N/A   Clear
3:35 PM - - N/A% - - North - - N/A   Unknown
3:55 PM - - N/A% - - North - - N/A   Unknown
4:15 PM 82.0 °F 40.1 °F 22% 29.85 in 10.0 mi ENE 13.8 mph - N/A   Clear
4:35 PM 82.8 °F 40.3 °F 22% 29.85 in 10.0 mi ENE 11.5 mph - N/A   Clear
4:55 PM 83.3 °F 41.5 °F 23% 29.85 in 10.0 mi East 11.5 mph - N/A   Clear
5:15 PM 84.2 °F 41.4 °F 22% 29.85 in 10.0 mi East 8.1 mph 17.3 mph N/A   Clear
5:35 PM 83.7 °F 41.7 °F 23% 29.85 in 10.0 mi ENE 12.7 mph 18.4 mph N/A   Clear
5:55 PM 83.3 °F 41.0 °F 22% 29.84 in 10.0 mi East 12.7 mph - N/A   Clear
6:15 PM 82.9 °F 43.3 °F 25% 29.84 in 10.0 mi East 10.4 mph - N/A   Clear
6:35 PM 82.6 °F 41.7 °F 24% 29.84 in 10.0 mi East 6.9 mph - N/A   Clear
6:55 PM 82.4 °F 41.7 °F 24% 29.83 in 10.0 mi East 10.4 mph - N/A   Clear
7:15 PM 81.7 °F 42.3 °F 25% 29.83 in 10.0 mi East 8.1 mph - N/A   Clear
7:35 PM 81.1 °F 42.1 °F 25% 29.83 in 10.0 mi East 9.2 mph - N/A   Clear
7:55 PM 80.2 °F 42.6 °F 26% 29.83 in 10.0 mi ENE 8.1 mph - N/A   Clear
8:15 PM 79.0 °F 43.5 °F 28% 29.83 in 10.0 mi ENE 3.5 mph - N/A   Clear
8:35 PM 77.4 °F 43.9 °F 30% 29.82 in 10.0 mi ENE 4.6 mph - N/A   Clear
8:55 PM 75.9 °F 43.5 °F 31% 29.83 in 10.0 mi NE 8.1 mph - N/A   Clear
9:15 PM 74.1 °F 43.5 °F 33% 29.83 in 10.0 mi ENE 5.8 mph - N/A   Clear
9:35 PM 72.3 °F 43.9 °F 36% 29.84 in 10.0 mi ENE 4.6 mph - N/A   Clear
9:55 PM 71.6 °F 43.9 °F 37% 29.85 in 10.0 mi ENE 6.9 mph - N/A   Clear
10:15 PM 71.1 °F 44.1 °F 38% 29.85 in 10.0 mi ENE 6.9 mph - N/A   Clear
10:35 PM 70.9 °F 44.4 °F 39% 29.85 in 10.0 mi ENE 6.9 mph - N/A   Clear
10:55 PM 72.1 °F 44.6 °F 37% 29.86 in 10.0 mi ESE 6.9 mph - N/A   Scattered Clouds
11:15 PM 72.0 °F 45.0 °F 38% 29.86 in 10.0 mi ESE 4.6 mph - N/A   Overcast
11:35 PM 71.6 °F 45.1 °F 39% 29.87 in 10.0 mi NE 5.8 mph - N/A   Overcast
11:55 PM 70.9 °F 45.1 °F 40% 29.87 in 10.0 mi East 5.8 mph - N/A   Overcast